Location: Springfield
(37.2150°N, 93.2980°W)
Time: 16:23:07
(UTC-06:00)

N. Korean satellite - Pass Details

Date: 26 October 2019
Orbit: 456 x 506 km, 97.2° (Epoch: 18 November)

Event Time Altitude Azimuth Distance (km) Brightness Sun altitude
Rises 06:41:21 0° 19° (NNE) 2,583 10.4 -10.6°
Reaches altitude 10° 06:43:31 10° 27° (NNE) 1,703 9.6 -10.2°
Maximum altitude 06:47:00 40° 98° (E) 743 8.2 -9.5°
Drops below altitude 10° 06:50:29 10° 170° (S) 1,707 9.6 -8.8°
Sets 06:52:39 0° 177° (S) 2,589 10.4 -8.4°
